Time,TemperatureF,DewpointF,PressureIn,WindDirection,WindDirectionDegrees,WindSpeedMPH,WindSpeedGustMPH,Humidity,HourlyPrecipIn,Conditions,Clouds,dailyrainin,SoftwareType,DateUTC
2013-05-17 00:02:00,61.9,38.5,30.13,West,270,0.0,0.0,42,0.00,,,0.00,meteohub,2013-05-17 07:02:00,
2013-05-17 00:22:00,61.7,39.6,30.13,WSW,251,0.0,0.0,44,0.00,,,0.00,meteohub,2013-05-17 07:22:00,
2013-05-17 00:42:00,61.5,39.9,30.13,WSW,245,0.0,0.0,45,0.00,,,0.00,meteohub,2013-05-17 07:42:00,
2013-05-17 01:02:00,61.3,39.7,30.13,SW,226,0.0,0.0,45,0.00,,,0.00,meteohub,2013-05-17 08:02:00,
2013-05-17 01:22:00,61.7,40.1,30.13,SW,214,0.0,0.0,45,0.00,,,0.00,meteohub,2013-05-17 08:22:00,
2013-05-17 01:42:00,61.7,39.6,30.13,SSW,213,0.0,0.0,44,0.00,,,0.00,meteohub,2013-05-17 08:42:00,
2013-05-17 02:02:00,61.9,39.2,30.13,SW,231,0.0,0.0,43,0.00,,,0.00,meteohub,2013-05-17 09:02:00,
2013-05-17 02:22:00,61.9,39.2,30.13,South,191,0.0,0.0,43,0.00,,,0.00,meteohub,2013-05-17 09:22:00,
2013-05-17 02:42:00,62.1,39.9,30.13,SSW,207,0.0,0.0,44,0.00,,,0.00,meteohub,2013-05-17 09:42:00,
2013-05-17 03:02:00,61.9,39.7,30.10,SSW,213,0.0,0.0,44,0.00,,,0.00,meteohub,2013-05-17 10:02:00,
2013-05-17 03:22:00,61.9,39.7,30.10,SW,231,0.0,0.0,44,0.00,,,0.00,meteohub,2013-05-17 10:22:00,
2013-05-17 03:42:00,61.9,39.7,30.10,South,181,0.0,0.0,44,0.00,,,0.00,meteohub,2013-05-17 10:42:00,
2013-05-17 04:02:00,61.9,39.7,30.10,SW,218,0.0,0.0,44,0.00,,,0.00,meteohub,2013-05-17 11:02:00,
2013-05-17 04:22:00,61.7,39.6,30.10,SSW,193,0.0,0.0,44,0.00,,,0.00,meteohub,2013-05-17 11:22:00,
2013-05-17 04:42:00,61.7,39.6,30.10,South,183,0.0,0.0,44,0.00,,,0.00,meteohub,2013-05-17 11:42:00,
2013-05-17 05:02:00,61.7,39.6,30.10,South,183,0.0,0.0,44,0.00,,,0.00,meteohub,2013-05-17 12:02:00,
2013-05-17 05:22:00,61.9,39.7,30.13,South,172,0.0,0.0,44,0.00,,,0.00,meteohub,2013-05-17 12:22:00,
2013-05-17 05:42:00,61.9,39.7,30.13,South,178,0.0,0.0,44,0.00,,,0.00,meteohub,2013-05-17 12:42:00,
2013-05-17 06:02:00,61.9,40.3,30.13,SSE,161,0.0,0.0,45,0.00,,,0.00,meteohub,2013-05-17 13:02:00,
2013-05-17 06:22:00,61.7,40.1,30.13,SSE,159,0.0,0.0,45,0.00,,,0.00,meteohub,2013-05-17 13:22:00,
2013-05-17 06:42:00,61.2,40.3,30.13,South,177,0.0,0.0,46,0.00,,,0.00,meteohub,2013-05-17 13:42:00,
2013-05-17 07:02:00,61.7,41.2,30.16,South,176,0.0,0.0,47,0.00,,,0.00,meteohub,2013-05-17 14:02:00,
2013-05-17 07:22:00,62.4,41.9,30.16,SSW,209,4.0,0.0,47,0.00,,,0.00,meteohub,2013-05-17 14:22:00,
2013-05-17 07:42:00,63.5,41.2,30.16,South,186,5.0,8.0,44,0.00,,,0.00,meteohub,2013-05-17 14:42:00,
2013-05-17 08:02:00,64.8,37.9,30.16,SSW,213,4.0,7.0,37,0.00,,,0.00,meteohub,2013-05-17 15:02:00,
2013-05-17 08:22:00,64.6,37.8,30.16,SW,229,3.0,8.0,37,0.00,,,0.00,meteohub,2013-05-17 15:22:00,
2013-05-17 08:42:00,65.7,38.7,30.16,South,173,6.0,8.0,37,0.00,,,0.00,meteohub,2013-05-17 15:42:00,
2013-05-17 09:02:00,65.1,38.1,30.16,SW,226,6.0,8.0,37,0.00,,,0.00,meteohub,2013-05-17 16:02:00,
2013-05-17 09:22:00,65.5,37.8,30.16,South,179,4.0,9.0,36,0.00,,,0.00,meteohub,2013-05-17 16:22:00,
2013-05-17 09:42:00,66.7,38.3,30.16,SSW,206,4.0,9.0,35,0.00,,,0.00,meteohub,2013-05-17 16:42:00,
2013-05-17 10:02:00,68.5,39.0,30.19,SSW,204,3.0,10.0,34,0.00,,,0.00,meteohub,2013-05-17 17:02:00,
2013-05-17 10:22:00,67.1,38.5,30.19,South,186,8.0,11.0,35,0.00,,,0.00,meteohub,2013-05-17 17:22:00,
2013-05-17 10:42:00,68.0,38.7,30.19,South,180,8.0,11.0,34,0.00,,,0.00,meteohub,2013-05-17 17:42:00,
2013-05-17 11:02:00,67.3,38.7,30.19,South,170,10.0,11.0,35,0.00,,,0.00,meteohub,2013-05-17 18:02:00,
2013-05-17 11:22:00,68.2,38.7,30.19,South,186,9.0,13.0,34,0.00,,,0.00,meteohub,2013-05-17 18:22:00,
2013-05-17 11:42:00,68.2,38.7,30.19,SSE,167,11.0,11.0,34,0.00,,,0.00,meteohub,2013-05-17 18:42:00,
2013-05-17 12:02:00,68.5,39.0,30.19,SSW,207,6.0,11.0,34,0.00,,,0.00,meteohub,2013-05-17 19:02:00,
2013-05-17 12:22:00,68.9,39.4,30.19,South,177,5.0,13.0,34,0.00,,,0.00,meteohub,2013-05-17 19:22:00,
2013-05-17 12:42:00,69.3,39.7,30.19,SSW,193,10.0,15.0,34,0.00,,,0.00,meteohub,2013-05-17 19:42:00,
2013-05-17 13:02:00,69.4,39.9,30.19,South,191,9.0,14.0,34,0.00,,,0.00,meteohub,2013-05-17 20:02:00,
2013-05-17 13:22:00,69.4,39.9,30.19,SSW,207,9.0,11.0,34,0.00,,,0.00,meteohub,2013-05-17 20:22:00,
2013-05-17 13:42:00,70.3,39.9,30.19,SSE,162,11.0,13.0,33,0.00,,,0.00,meteohub,2013-05-17 20:42:00,
2013-05-17 14:02:00,70.5,40.1,30.19,SSW,199,8.0,13.0,33,0.00,,,0.00,meteohub,2013-05-17 21:02:00,
2013-05-17 14:22:00,69.6,39.2,30.19,SW,217,8.0,12.0,33,0.00,,,0.00,meteohub,2013-05-17 21:22:00,
2013-05-17 14:42:00,70.0,39.6,30.19,SSW,213,4.0,13.0,33,0.00,,,0.00,meteohub,2013-05-17 21:42:00,
2013-05-17 15:02:00,69.8,39.4,30.19,SW,227,10.0,13.0,33,0.00,,,0.00,meteohub,2013-05-17 22:02:00,
2013-05-17 15:22:00,69.6,39.2,30.19,SW,227,11.0,13.0,33,0.00,,,0.00,meteohub,2013-05-17 22:22:00,
2013-05-17 15:42:00,70.5,40.1,30.19,SW,222,7.0,12.0,33,0.00,,,0.00,meteohub,2013-05-17 22:42:00,
2013-05-17 16:02:00,69.6,39.2,30.19,SW,215,8.0,13.0,33,0.00,,,0.00,meteohub,2013-05-17 23:02:00,
2013-05-17 16:22:00,69.1,39.6,30.16,West,270,8.0,11.0,34,0.00,,,0.00,meteohub,2013-05-17 23:22:00,
2013-05-17 16:42:00,69.6,39.9,30.19,West,277,6.0,14.0,34,0.00,,,0.00,meteohub,2013-05-17 23:42:00,
2013-05-17 17:02:00,68.7,39.9,30.19,WSW,246,9.0,13.0,35,0.00,,,0.00,meteohub,2013-05-18 00:02:00,
2013-05-17 17:22:00,67.6,39.0,30.16,WSW,253,8.0,11.0,35,0.00,,,0.00,meteohub,2013-05-18 00:22:00,
2013-05-17 17:42:00,68.2,38.7,30.19,WSW,255,11.0,13.0,34,0.00,,,0.00,meteohub,2013-05-18 00:42:00,
2013-05-17 18:02:00,67.5,38.8,30.19,WSW,252,11.0,11.0,35,0.00,,,0.00,meteohub,2013-05-18 01:02:00,
2013-05-17 18:22:00,66.0,39.0,30.19,WSW,258,8.0,13.0,37,0.00,,,0.00,meteohub,2013-05-18 01:22:00,
2013-05-17 18:42:00,66.0,38.3,30.19,WSW,237,8.0,13.0,36,0.00,,,0.00,meteohub,2013-05-18 01:42:00,
2013-05-17 19:02:00,65.1,36.9,30.19,SW,227,3.0,11.0,35,0.00,,,0.00,meteohub,2013-05-18 02:02:00,
2013-05-17 19:22:00,64.2,36.7,30.19,West,263,11.0,11.0,36,0.00,,,0.00,meteohub,2013-05-18 02:22:00,
2013-05-17 19:42:00,63.0,36.3,30.19,West,263,4.0,10.0,37,0.00,,,0.00,meteohub,2013-05-18 02:42:00,
2013-05-17 20:02:00,62.4,36.5,30.19,WSW,253,6.0,11.0,38,0.00,,,0.00,meteohub,2013-05-18 03:02:00,
2013-05-17 20:22:00,62.2,37.6,30.19,SW,227,4.0,10.0,40,0.00,,,0.00,meteohub,2013-05-18 03:22:00,
2013-05-17 20:42:00,61.9,39.7,30.19,WSW,248,6.0,9.0,44,0.00,,,0.00,meteohub,2013-05-18 03:42:00,
2013-05-17 21:02:00,61.7,37.2,30.19,WSW,251,5.0,9.0,40,0.00,,,0.00,meteohub,2013-05-18 04:02:00,
2013-05-17 21:22:00,61.9,38.5,30.22,WSW,249,6.0,8.0,42,0.00,,,0.00,meteohub,2013-05-18 04:22:00,
2013-05-17 21:42:00,61.7,39.6,30.19,SW,231,6.0,6.0,44,0.00,,,0.00,meteohub,2013-05-18 04:42:00,
2013-05-17 22:02:00,61.5,39.4,30.22,SW,224,7.0,8.0,44,0.00,,,0.00,meteohub,2013-05-18 05:02:00,
2013-05-17 22:22:00,61.3,39.2,30.22,WSW,238,6.0,6.0,44,0.00,,,0.00,meteohub,2013-05-18 05:22:00,
2013-05-17 22:42:00,61.3,39.2,30.22,WSW,248,4.0,6.0,44,0.00,,,0.00,meteohub,2013-05-18 05:42:00,
2013-05-17 23:02:00,61.3,37.4,30.22,SW,217,5.0,6.0,41,0.00,,,0.00,meteohub,2013-05-18 06:02:00,
2013-05-17 23:22:00,61.0,37.0,30.22,SSW,204,4.0,6.0,41,0.00,,,0.00,meteohub,2013-05-18 06:22:00,
2013-05-17 23:42:00,60.8,36.9,30.22,SSW,206,0.0,5.0,41,0.00,,,0.00,meteohub,2013-05-18 06:42:00,